STARLINK-5721, 55617

Orbit data source: Space-Track

STARLINK-5721, 55617 is a payload satellite owned by SpaceX/Seattle (US) in LEO that was launched on Sun, 12 Feb 2023 UTC via an FALCON 9 launch vehicle from the Air Force Eastern Test Range (AFETR). Payload-class satellites include a variety of spacecraft equipped with specific instruments for various scientific and technological missions. These include communications satellites like Starlink; space stations such as the ISS; scientific satellites like the Hubble; Earth observation satellites from companies like Planet Labs, Umbra, and HawkEye 360; GPS; miniature CubeSats for education and research; and military/defense satellites.

Loading next visibility...
Identifier
55617, 2023-020BA
Orbit
LEO
Country
Flag of USUS
Related business
Manufacturer
SpaceX/Seattle
Mission
Operational Commercial Communications
Bus & Motor
STARLINK, Unknown motor
Mass
305 kg wet, ~290 kg dry
Launch date (UTC)
2023-02-12 (3 years ago)
Launch vehicle
FALCON 9
Launch site
Air Force Eastern Test Range (AFETR)
Object type
Payload
Rocket body
Debris
Shape & HBR
Box + 1 Pan, 10.1 m
Radar Cross Section
13.562 m², Large (>1 m²)

Expand to show TLE details & history
Last TLE update: 2 days ago

TLE from 2 days ago
0 STARLINK-5721
1 55617U 23020BA  26171.22334716  .00001030  00000-0  46958-4 0  9996
2 55617  43.0052 134.9014 0001697 290.9233  69.1437 15.27578850184723
Epoch: 2026-06-20T05:21Z
TLE epoch observation values (Epoch: 2026-06-20T05:21:37.194Z)
Latitude
-0.00003°
Longitude
146.05534°
Altitude
482.414 km
Speed
7.626 km/s
True Right ascension
08h 59m 36s
True Declination
0° 00' 00"
Sunlit
Object was in daylight at epoch
Visualization orbit readout
Latitude
Unknown
Longitude
Unknown
Altitude
Unknown
Speed
Unknown
Apparent Right ascension
Unknown
Apparent Declination
Unknown
Sunlit
N/A
Visualization observer readout
Local Sidereal Time
21:48:33
Azimuth
Unknown
Elevation
Unknown
Doppler factor
Unknown
Orbital elements
Apogee altitude
486.162 km
Perigee altitude
483.832 km
Semi-major axis
6,863.134 km
Eccentricity
0.00017
Inclination
43.0052°
RAAN
134.9014°
Arg. of periapsis
290.9233°
True anomaly
69.16187°
Mean anomaly
69.1437°
Eccentric anomaly
69.15279°
Mean motion
3.81733 °/min
Orbital period
94.31 mins
BSTAR
0.000046958
Loading maneuver chart data...
Computing Atmospheric mass density...
Loading historical data...
Loading historical data...
Loading historical data...
Loading historical data...
Loading historical data...
Loading historical data...
Loading historical data...

Documentation

Showing up to 5 results
|